Notices

What's New in latest Release from April 7th, 2021:

- Updated Glossary, including Speed of Maximum Gust, and Total Hourly Precipitation

- Updated national and regional climate services offices contacts and prices information

- Addition of station inventory lists for 1981-2010, 1971-2000, and 1961-1990 Normals.

If you haven't already, please take our survey and provide feedback about our website: https://eccc.sondage-survey.ca/f/LanguageSelection.aspx?s=442ca660-fcf1-47c0-95a9-59707d6fd709

Hourly Data Report for March 27, 2021

OTTAWA INTL A
ONTARIO
Current Station Operator: NAVCAN

45°19'00.000" N
75°40'00.000" W
114.90 m
6106001
71628
YOW

Download Data

Hourly Data (March 2021)
Hourly Data Report for March 27, 2021
TIME
LST
Temp Definition
°C
Dew Point Definition
°C
Rel Hum Definition
%
Precip. Amount Definition
mm

Wind Dir Definition
10's deg

Wind Spd Definition
km/h
Visibility Definition
km
Stn Press Definition
kPa
Hmdx Definition


Wind Chill Definition


Weather Definition


00:00 0.3 -1.4 89   28 24 24.1 100.30     LegendNANA
01:00 -0.2 -1.9 88   28 23 24.1 100.33   -6 Mostly Cloudy
02:00 -0.5 -2.4 87   28 27 24.1 100.38   -7 LegendNANA
03:00 -0.8 -2.9 86   29 17 24.1 100.42   -6 LegendNANA
04:00 -0.9 -2.9 86   27 18 24.1 100.44   -6 Mostly Cloudy
05:00 -1.0 -2.8 87   29 15 24.1 100.48   -6 LegendNANA
06:00 -0.8 -2.9 86   29 15 24.1 100.58   -5 LegendNANA
07:00 -0.4 -2.6 85   27 12 24.1 100.65   -4 Mostly Cloudy
08:00 0.0 -2.3 84   27 13 24.1 100.74   -4 LegendNANA
09:00 0.7 -1.9 83   25 13 24.1 100.75     LegendNANA
10:00 1.4 -2.2 77   25 18 24.1 100.77     Mostly Cloudy
11:00 2.6 -2.0 72   26 12 24.1 100.69     LegendNANA
12:00 3.1 -2.7 65   26 18 24.1 100.68     LegendNANA
13:00 2.8 -2.9 66   25 14 24.1 100.69     Mostly Cloudy
14:00 3.0 -2.8 66   26 13 24.1 100.68     LegendNANA
15:00 3.1 -2.2 68   21 13 24.1 100.72     LegendNANA
16:00 3.9 -2.2 65   19 5 24.1 100.67     Mostly Cloudy
17:00 4.0 -2.3 63   36 2 24.1 100.64     LegendNANA
18:00 3.4 -1.9 69   10 6 24.1 100.69     LegendNANA
19:00 2.9 -1.3 74   10 13 24.1 100.65     Cloudy
20:00 2.9 -1.0 75   9 16 24.1 100.56     LegendNANA
21:00 2.4 -0.9 79   10 12 24.1 100.56     LegendNANA
22:00 2.3 -1.3 77   8 19 24.1 100.41     Mostly Cloudy
23:00 1.2 -1.6 82   9 13 24.1 100.36     LegendNANA

Notes on Data Quality.

Legend

  • E = Estimated
  • M = Missing
  • NA = Not Available*
  • [empty] = Indicates an unobserved value
Date modified: